Location: Cella
(44.7333°N, 10.5667°E)
Time: 09:30:41
(UTC+00:00)

Cosmos 1777 Rocket - Pass Details

Date: 20 June 2021
Orbit: 757 x 776 km, 74.0° (Epoch: 28 July)

Event Time Altitude Azimuth Distance (km) Brightness Sun altitude
Rises 23:14:29 0° 332° (NNW) 3,261 8.3 -21.8°
Reaches altitude 10° 23:16:58 10° 326° (NW) 2,331 7.3 -21.8°
Maximum altitude 23:21:55 42° 257° (WSW) 1,092 4.6 -21.8°
Enters shadow 23:22:56 38° 228° (SW) 1,168 4.6 -21.8°
